C/2017 C2 ( PanSTARRS )

Japanese version
Home page
Updated on March 25, 2017

---------------------------------------------------------------------

* Profile

Discovery Date February 4, 2017
Magnitude 19.6 mag
Discoverer Pan-STARRS 1 telescope (Haleakala)

* Pictures

* Orbital Elements

Epoch 2017 Jan. 7.0 TT = JDT 2457760.5
T 2017 Jan. 21.54356 TT                                 MPCW
q   2.4319281            (2000.0)            P               Q
z  +0.0082470      Peri.  138.74087     -0.03661059     +0.56518124
 +/-0.0009890      Node   249.80623     +0.51687797     +0.71653448
e   0.9799439      Incl.  118.58212     +0.85527588     -0.40883799
From 76 observations 2017 Feb. 4-21, mean residual 0".6.

* Magnitudes Graph

        m1 = 13.0 + 5 log d + 10.0 log r

---------------------------------------------------------------------

The orbital elements are published on M.P.E.C. 2017-E59.
The magnitudes graphs are made with Comet for Windows.

---------------------------------------------------------------------

Copyright(C) Seiichi Yoshida (comet@aerith.net). All rights reserved.